Regional Weather Roundup
Issued by NWS

Home | Current Version | Previous Version | Text Only | Print | Product List | Glossary On
Versions: 1 2 3 4 5 6 7 8 9 10 11 12 13 14 15 16 17 18 19 20 21 22 23 24 25 26 27 28 29 30 31 32 33 34 35 36 37 38 39 40 41 42 43 44 45 46 47 48 49 50
000
ASUS44 KOUN 190410
RWROK

WEATHER ROUNDUP FOR OKLAHOMA
NATIONAL WEATHER SERVICE NORMAN OK
1100 PM CDT FRI AUG 18 2017

NOTE: "FAIR" INDICATES FEW OR NO CLOUDS BELOW 12,000 FEET WITH NO
      SIGNIFICANT WEATHER AND/OR OBSTRUCTIONS TO VISIBILITY.

OKZ001>007-009>012-014-015-017-190500-
NORTHWEST OKLAHOMA AND THE PANHANDLE

CITY           SKY/WX    TMP DP  RH WIND       PRES   REMARKS
GAGE           FAIR      76  68  76 S10       30.01R
GUYMON         FAIR      72  69  90 SW6       30.05R
ENID/WOODRING  FAIR      75  72  88 S5        29.94S
$$

OKZ016-021>023-033>039-044-045-190500-
SOUTHWEST OKLAHOMA

CITY           SKY/WX    TMP DP  RH WIND       PRES   REMARKS
LAWTON/REGL    FAIR      80  75  84 MISG      29.97S
LAWTON/FT SILL FAIR      79  76  89 SE5       29.97R FOG
FREDERICK      FAIR      81  75  82 SE7       29.95R
CLINTON        FAIR      78  69  73 S8        30.01S
HOBART         FAIR      81  71  71 S9        29.99S
ALTUS AFB      FAIR      77  72  83 N6        29.98R
$$

OKZ018>020-024>031-190500-
CENTRAL OKLAHOMA

CITY           SKY/WX    TMP DP  RH WIND       PRES   REMARKS
OKLAHOMA CITY  FAIR      76  73  91 S5        29.98R
OKC/WILEY POST FAIR      78  74  87 S7        29.98R
OKC/TINKER AFB FAIR      77  73  88 S6        29.98R
STILLWATER     FAIR      78  71  79 S5        29.95R
GUTHRIE        FAIR      78  72  81 S5        29.96R
$$

OKZ008-013-054>072-190500-
NORTHEAST OKLAHOMA

CITY           SKY/WX    TMP DP  RH WIND       PRES   REMARKS
TULSA          FAIR      82  74  76 SE6       29.93R
TULSA/JONES    FAIR      77  75  93 CALM      29.95R
PONCA CITY     FAIR      81  68  64 S5        29.94R
BARTLESVILLE   FAIR      71  69  93 CALM      29.95S
MUSKOGEE       FAIR      77  75  93 S5        29.97R
$$

OKZ032-040>043-046>053-073>077-190500-
SOUTH CENTRAL/SOUTHEAST OKLAHOMA

CITY           SKY/WX    TMP DP  RH WIND       PRES   REMARKS
ARDMORE/DWNTWN FAIR      77  70  78 CALM      29.98S
MCALESTER      FAIR      79  73  82 CALM      29.99R
$$





USA.gov is the U.S. government's official web portal to all federal, state and local government web resources and services.